Weather History for South Hill, VA

Change the Weather History Date:

Thursday, April 18, 2013

  Actual Average (KEMV) Record (KEMV)
Temperature  
Mean Temperature 69 °F -  
Max Temperature 78 °F 70 °F 93 °F (2002)
Min Temperature 60 °F 43 °F 31 °F (1983)
Cooling Degree Days 4    
Growing Degree Days 19 (Base 50)    
Moisture  
Dew Point 61 °F    
Average Humidity 81    
Maximum Humidity 100    
Minimum Humidity 51    
Precipitation  
Precipitation 0.02 in - - ()
Sea Level Pressure  
Sea Level Pressure 30.19 in    
Wind  
Wind Speed 6 mph (SSE)    
Max Wind Speed 17 mph    
Max Gust Speed 22 mph    
Visibility 10 miles    
Events      
Averages and records for this station are not official NWS values.
T = Trace of Precipitation, MM = Missing Value Source: NWS Daily Summary

Daily Weather History Graph

Daily Weather History Graph

Search for Another Location

Airport:

Trip Planner

Search our weather history database for the weather conditions in past years. The results will help you decide how hot, cold, wet, or windy it might be!

Date:

Astronomy

Apr. 18, 2013 Rise Set
Actual Time 6:34 AM EDT 7:49 PM EDT
Civil Twilight 6:07 AM EDT 8:16 PM EDT
Nautical Twilight 5:35 AM EDT 8:48 PM EDT
Astronomical Twilight 5:01 AM EDT 9:22 PM EDT
Moon 12:45 PM EDT (4/18) 2:00 AM EDT (4/18)
Length of Visible Light 14h 09m
Length of Day
13h 15m
First Quarter, 51% of the Moon is Illuminated
Apr 18
First Quarter
Apr 25
Full
May 2
Last Quarter
May 9
New
May 18
First Quarter

Hourly Weather History & Observations

Time (EDT) Temp. Dew Point Humidity Pressure Visibility Wind Dir Wind Speed Gust Speed Precip Events Conditions
12:15 AM 66.2 °F 66.2 °F 100% 30.22 in 7.0 mi Calm Calm - N/A   Mostly Cloudy
12:35 AM 66.2 °F 66.2 °F 100% 30.22 in 10.0 mi SSE 3.5 mph - N/A   Scattered Clouds
12:55 AM 64.4 °F 64.4 °F 100% 30.21 in 10.0 mi SSE 4.6 mph - N/A   Scattered Clouds
1:15 AM 64.4 °F 64.4 °F 100% 30.21 in 10.0 mi SE 3.5 mph - N/A   Scattered Clouds
1:35 AM 64.4 °F 64.4 °F 100% 30.20 in 10.0 mi South 3.5 mph - N/A   Scattered Clouds
1:55 AM 62.6 °F 62.6 °F 100% 30.20 in 10.0 mi SSE 4.6 mph - N/A   Scattered Clouds
2:15 AM 62.6 °F 62.6 °F 100% 30.20 in 10.0 mi SSE 3.5 mph - N/A   Scattered Clouds
2:35 AM 62.6 °F 62.6 °F 100% 30.20 in 10.0 mi SSE 3.5 mph - N/A   Scattered Clouds
2:55 AM 62.6 °F 62.6 °F 100% 30.20 in 10.0 mi Calm Calm - N/A   Scattered Clouds
3:15 AM 60.8 °F 60.8 °F 100% 30.21 in 10.0 mi South 3.5 mph - N/A   Scattered Clouds
3:35 AM 60.8 °F 60.8 °F 100% 30.21 in 10.0 mi Calm Calm - N/A   Mostly Cloudy
3:55 AM 60.8 °F 60.8 °F 100% 30.22 in 10.0 mi Calm Calm - N/A   Overcast
4:15 AM 62.6 °F 62.6 °F 100% 30.21 in 10.0 mi SSE 4.6 mph - N/A   Overcast
4:35 AM 62.6 °F 62.6 °F 100% 30.20 in 10.0 mi South 4.6 mph - N/A   Overcast
4:55 AM 62.6 °F 62.6 °F 100% 30.20 in 10.0 mi SSE 4.6 mph - N/A   Overcast
5:15 AM 62.6 °F 62.6 °F 100% 30.21 in 10.0 mi South 4.6 mph - N/A   Overcast
5:35 AM 60.8 °F 60.8 °F 100% 30.21 in 10.0 mi SSE 5.8 mph - N/A   Overcast
5:55 AM 60.8 °F 60.8 °F 100% 30.21 in 10.0 mi South 5.8 mph - N/A   Mostly Cloudy
6:15 AM 60.8 °F 60.8 °F 100% 30.22 in 10.0 mi SSE 4.6 mph - N/A   Scattered Clouds
6:35 AM 60.8 °F 60.8 °F 100% 30.23 in 10.0 mi SSE 5.8 mph - N/A   Scattered Clouds
6:55 AM 60.8 °F 60.8 °F 100% 30.24 in 3.0 mi South 6.9 mph - N/A   Clear
7:15 AM 60.8 °F 60.8 °F 100% 30.24 in 10.0 mi South 5.8 mph - N/A   Clear
7:35 AM 60.8 °F 60.8 °F 100% 30.25 in 10.0 mi South 5.8 mph - N/A   Clear
7:55 AM 62.6 °F 62.6 °F 100% 30.25 in 10.0 mi South 8.1 mph - 0.01 in   Scattered Clouds
8:15 AM 62.6 °F 62.6 °F 100% 30.25 in 10.0 mi South 6.9 mph - 0.01 in   Scattered Clouds
8:35 AM 64.4 °F 64.4 °F 100% 30.25 in 10.0 mi South 6.9 mph - 0.01 in   Scattered Clouds
8:55 AM 64.4 °F 64.4 °F 100% 30.25 in 10.0 mi South 5.8 mph - N/A   Clear
9:15 AM 66.2 °F 64.4 °F 94% 30.25 in 10.0 mi SSE 8.1 mph - N/A   Clear
9:35 AM 66.2 °F 66.2 °F 100% 30.26 in 10.0 mi South 8.1 mph - N/A   Clear
9:55 AM 66.2 °F 64.4 °F 94% 30.27 in 10.0 mi South 11.5 mph - N/A   Clear
10:15 AM 66.2 °F 64.4 °F 94% 30.26 in 10.0 mi South 8.1 mph - N/A   Clear
10:35 AM 69.8 °F 64.4 °F 83% 30.27 in 10.0 mi South 8.1 mph - N/A   Mostly Cloudy
10:55 AM 71.6 °F 64.4 °F 78% 30.26 in 10.0 mi SSE 6.9 mph - N/A   Mostly Cloudy
11:35 AM 71.6 °F 62.6 °F 73% 30.25 in 10.0 mi South 10.4 mph - N/A   Mostly Cloudy
11:55 AM 71.6 °F 62.6 °F 73% 30.24 in 10.0 mi South 11.5 mph 20.7 mph N/A   Mostly Cloudy
12:15 PM 75.2 °F 60.8 °F 61% 30.24 in 10.0 mi South 10.4 mph 19.6 mph N/A   Scattered Clouds
12:35 PM 75.2 °F 59.0 °F 57% 30.23 in 10.0 mi SSE 10.4 mph 20.7 mph N/A   Scattered Clouds
12:55 PM 75.2 °F 60.8 °F 61% 30.23 in 10.0 mi South 10.4 mph - N/A   Scattered Clouds
1:15 PM 73.4 °F 60.8 °F 65% 30.22 in 10.0 mi SSE 8.1 mph - N/A   Mostly Cloudy
1:55 PM 75.2 °F 60.8 °F 61% 30.20 in 10.0 mi South 10.4 mph 16.1 mph N/A   Mostly Cloudy
2:15 PM 75.2 °F 60.8 °F 61% 30.20 in 10.0 mi SSE 8.1 mph 11.5 mph N/A   Scattered Clouds
2:35 PM 75.2 °F 60.8 °F 61% 30.20 in 10.0 mi South 12.7 mph 17.3 mph N/A   Scattered Clouds
2:55 PM 75.2 °F 60.8 °F 61% 30.19 in 10.0 mi South 17.3 mph - N/A   Scattered Clouds
3:15 PM 75.2 °F 60.8 °F 61% 30.18 in 10.0 mi South 15.0 mph 21.9 mph N/A   Scattered Clouds
3:35 PM 78.8 °F 60.8 °F 54% 30.16 in 10.0 mi South 16.1 mph 19.6 mph N/A   Scattered Clouds
3:55 PM 78.8 °F 60.8 °F 54% 30.16 in 10.0 mi South 16.1 mph 20.7 mph N/A   Mostly Cloudy
4:15 PM 77.0 °F 60.8 °F 57% 30.16 in 10.0 mi South 11.5 mph - N/A   Mostly Cloudy
4:35 PM 77.0 °F 59.0 °F 54% 30.15 in 10.0 mi South 8.1 mph 16.1 mph N/A   Mostly Cloudy
4:55 PM 78.8 °F 59.0 °F 51% 30.14 in 10.0 mi SSE 6.9 mph - N/A   Scattered Clouds
5:15 PM 75.2 °F 59.0 °F 57% 30.14 in 10.0 mi South 8.1 mph - N/A   Mostly Cloudy
5:35 PM 77.0 °F 60.8 °F 57% 30.13 in 10.0 mi South 11.5 mph - N/A   Scattered Clouds
5:55 PM 78.8 °F 59.0 °F 51% 30.13 in 10.0 mi SSE 12.7 mph 16.1 mph N/A   Mostly Cloudy
6:15 PM 75.2 °F 59.0 °F 57% 30.12 in 10.0 mi SSE 9.2 mph - N/A   Mostly Cloudy
6:35 PM 73.4 °F 59.0 °F 61% 30.12 in 10.0 mi SSE 9.2 mph - N/A   Scattered Clouds
6:55 PM 73.4 °F 59.0 °F 61% 30.12 in 10.0 mi SSE 9.2 mph - N/A   Clear
7:15 PM 73.4 °F 59.0 °F 61% 30.11 in 10.0 mi SSE 4.6 mph - N/A   Clear
7:35 PM 71.6 °F 59.0 °F 64% 30.11 in 10.0 mi SSE 3.5 mph - N/A   Clear
7:55 PM 69.8 °F 57.2 °F 64% 30.11 in 10.0 mi SSE 4.6 mph - N/A   Clear
8:15 PM 69.8 °F 57.2 °F 64% 30.12 in 10.0 mi SSE 3.5 mph - N/A   Clear
8:35 PM 66.2 °F 57.2 °F 73% 30.12 in 10.0 mi SSE 3.5 mph - N/A   Clear
8:55 PM 66.2 °F 57.2 °F 73% 30.12 in 10.0 mi SSE 4.6 mph - N/A   Scattered Clouds
9:15 PM 66.2 °F 57.2 °F 73% 30.12 in 10.0 mi SSE 3.5 mph - N/A   Scattered Clouds
9:35 PM 66.2 °F 57.2 °F 73% 30.13 in 10.0 mi SSE 6.9 mph - N/A   Scattered Clouds
11:35 PM 64.4 °F 59.0 °F 83% 30.10 in 10.0 mi SSE 9.2 mph - N/A   Scattered Clouds
11:55 PM 64.4 °F 59.0 °F 83% 30.11 in 10.0 mi South 9.2 mph - N/A   Scattered Clouds